Location: Newark
(41.6500°N, 71.4833°W)
Time: 18:22:15
(UTC+00:00)

Tiros 1 - Pass Details

Date: 23 January 2020
Orbit: 630 x 664 km, 48.4° (Epoch: 16 February)

Event Time Altitude Azimuth Distance (km) Brightness Sun altitude
Rises 23:27:16 0° 298° (WNW) 2,980 11.4 -18.1°
Reaches altitude 10° 23:29:36 10° 297° (WNW) 2,071 10.5 -18.6°
Maximum altitude 23:34:24 84° 210° (SSW) 668 7.1 -19.4°
Enters shadow 23:36:27 35° 125° (SE) 1,075 7.9 -19.8°
